Miscellaneous Local Product
Issued by NWS Hastings, NE

Home | Current Version | Previous Version | Graphics & Text | Print | Product List | Glossary On
Versions: 1 2 3 4 5 6 7 8 9 10 11 12 13 14 15 16 17 18 19 20 21 22 23 24 25 26 27 28 29 30 31 32 33 34 35 36 37 38 39 40 41 42 43 44 45 46 47 48 49 50
000
AXUS43 KGID 201410
MISGRI

GID CWA HOURLY WEATHER ROUNDUP
NATIONAL WEATHER SERVICE HASTINGS NE
900 AM CDT SAT SEP 20 2014

NOTE: "FAIR" INDICATES FEW OR NO CLOUDS BELOW 12,000 FEET WITH NO
SIGNIFICANT WEATHER AND/OR OBSTRUCTIONS TO VISIBILITY.

...SOUTH CENTRAL NEBRASKA...

CITY           SKY/WX    TMP DP  RH WIND       PRES   REMARKS
GRAND ISLAND   SUNNY     70  60  70 N12       29.97R
HASTINGS       SUNNY     69  60  73 NW3       29.95R
KEARNEY        SUNNY     66  57  72 N9        29.98R
ORD            SUNNY     67  54  63 N7        29.97R
YORK           MOSUNNY   68  64  88 N3        29.94R
AURORA         SUNNY     68  63  83 N3        29.95R
LEXINGTON      SUNNY     66  57  74 N8        30.00R
HOLDREGE       SUNNY     66  58  75 N9        29.97R
HEBRON         PTSUNNY   70  63  77 SE3       29.95S

...NEBRASKA PANHANDLE...

CITY           SKY/WX    TMP DP  RH WIND       PRES   REMARKS
CHADRON        SUNNY     56  50  80 SW7       30.11S
ALLIANCE       SUNNY     54  48  80 W3        30.14R
SCOTTSBLUFF    SUNNY     56  49  77 NW9       30.17R
SIDNEY         SUNNY     58  49  72 NW12      30.18R

...WESTERN AND NORTH CENTRAL NEBRASKA...

CITY           SKY/WX    TMP DP  RH WIND       PRES   REMARKS
VALENTINE      MOSUNNY   61  52  72 W3        30.04R
AINSWORTH      MOSUNNY   60  53  77 W3        30.02R
ONEILL         MOSUNNY   64  59  86 W3        29.98S
BROKEN BOW     SUNNY     68  54  60 N12       30.01R
IMPERIAL       SUNNY     64  52  64 N9        30.07R
NORTH PLATTE   SUNNY     64  53  67 N9        30.04R
MCCOOK         SUNNY     67  56  67 NE15      29.99R

...EASTERN NEBRASKA...

CITY           SKY/WX    TMP DP  RH WIND       PRES   REMARKS
NORFOLK        MOSUNNY   69  58  67 NW3       29.94R
SO SIOUX CITY  PTSUNNY   64  62  93 NW8       29.93R
TEKAMAH        PTSUNNY   70  66  87 CALM      29.91R
ALBION         SUNNY     67  57  70 NW5       29.96R
OMAHA EPPLEY   PTSUNNY   69  64  84 S8        29.92R
OFFUTT AFB     PTSUNNY   69  68  99 S6        29.92F
MILLARD        PTSUNNY   69  65  88 S3        29.92S
LINCOLN        PTSUNNY   72  65  78 CALM      29.94R
NEBRASKA CITY  TSTM      66  65  99 N8        29.99R
BEATRICE       CLOUDY    68  65  90 S5        29.94F
FALLS CITY     CLOUDY    70  68  93 S9        29.94R

...NORTHERN KANSAS...

CITY           SKY/WX    TMP DP  RH WIND       PRES   REMARKS
GOODLAND       SUNNY     64  56  75 N10       30.06R
HILL CITY      SUNNY     71  64  78 W12       29.95R
NORTON         SUNNY     70  61  73 NW7       29.96R
SMITH CENTER   SUNNY     70  61  73 CALM      29.96R
BELOIT         SUNNY     72  63  73 CALM      29.94R
HAYS           SUNNY     70  61  73 SW14      29.95S
RUSSELL        SUNNY     71  63  75 SW13      29.93R
CONCORDIA      SUNNY     73  65  75 SW9       29.95R
SALINA         SUNNY     72  66  81 S8        29.96R
TOPEKA         SUNNY     73  70  90 VRB5      29.98F



USA.gov is the U.S. government's official web portal to all federal, state and local government web resources and services.